KD5OH Weather Reports


Display with metric or nautical units.
time (UTC)temp
F
wind
direction
speed
MPH
gust
MPH
rain 1hr
in
rain 24hr
in
rain mn
in
humidity
%
barometer
mb
20260506001627 72 234 8.0 13.0 0.00 0.00 0.00 24 1012.2
20260506000204 73 241 10.0 14.0 0.00 0.00 0.00 23 1012.2
20260505234659 72 209 4.0 9.0 0.00 0.00 0.00 27 1012.2
20260505233150 72 207 8.0 14.0 0.00 0.00 0.00 27 1012.2
20260505231621 72 225 7.0 12.0 0.00 0.00 0.00 28 1012.2
20260505230138 72 217 8.0 15.0 0.00 0.00 0.00 28 1012.3
20260505224628 73 239 8.0 16.0 0.00 0.00 0.00 28 1012.8
20260505223142 72 263 10.0 15.0 0.00 0.00 0.00 29 1012.9
20260505221652 72 210 9.0 17.0 0.00 0.00 0.00 29 1013.2
20260505220140 72 207 10.0 18.0 0.00 0.00 0.00 29 1013.4
20260505214655 71 248 15.0 21.0 0.00 0.00 0.00 30 1013.6
20260505213126 71 238 13.0 23.0 0.00 0.00 0.00 30 1014.0
20260505211641 71 231 11.0 22.0 0.00 0.00 0.00 30 1014.2
20260505210129 71 263 9.0 16.0 0.00 0.00 0.00 30 1014.7
20260505204639 70 237 7.0 14.0 0.00 0.00 0.00 33 1015.0
20260505203134 69 231 10.0 14.0 0.00 0.00 0.00 35 1015.5
20260505201626 68 241 9.0 18.0 0.00 0.00 0.00 35 1015.8
20260505200121 66 281 11.0 17.0 0.00 0.00 0.00 35 1015.8
20260505194631 66 234 15.0 24.0 0.00 0.00 0.00 36 1015.7
20260505193123 67 260 9.0 18.0 0.00 0.00 0.00 36 1015.5
20260505191638 67 243 11.0 20.0 0.00 0.00 0.00 34 1015.7
20260505190131 68 279 8.0 14.0 0.00 0.00 0.00 33 1015.4
20260505184624 68 232 6.0 12.0 0.00 0.00 0.00 32 1015.2
20260505183134 68 220 3.0 9.0 0.00 0.00 0.00 29 1015.2
20260505181625 69 246 5.0 9.0 0.00 0.00 0.00 28 1015.0
20260505180134 70 224 8.0 12.0 0.00 0.00 0.00 27 1015.1
20260505171623 68 168 2.0 6.0 0.00 0.00 0.00 29 1015.3
20260505170132 67 129 0.0 3.0 0.00 0.00 0.00 29 1015.2
20260505164644 67 279 2.0 8.0 0.00 0.00 0.00 31 1015.4
20260505163133 67 201 2.0 6.0 0.00 0.00 0.00 32 1015.0
20260505161625 67 208 3.0 7.0 0.00 0.00 0.00 33 1015.3
20260505160154 67 182 2.0 4.0 0.00 0.00 0.00 31 1015.3
20260505153133 66 153 0.0 3.0 0.00 0.00 0.00 32 1015.2
20260505151621 66 150 1.0 4.0 0.00 0.00 0.00 33 1015.1
20260505150134 66 222 0.0 2.0 0.00 0.00 0.00 34 1015.1
20260505140120 65 272 2.0 8.0 0.00 0.00 0.00 34 1015.2
20260505130129 63 209 0.0 1.0 0.00 0.00 0.00 34 1014.9
20260505124625 64 213 0.0 3.0 0.00 0.00 0.00 31 1014.6
20260505123138 64 248 0.0 1.0 0.00 0.00 0.00 31 1014.6
20260505121633 64 309 2.0 5.0 0.00 0.00 0.00 32 1014.5
20260505120125 63 251 0.0 0.0 0.00 0.00 0.00 33 1014.4
20260505114657 64 9 0.0 0.0 0.00 0.00 0.00 31 1014.1
20260505113132 63 297 0.0 0.0 0.00 0.00 0.00 31 1014.1
20260505111623 64 297 0.0 1.0 0.00 0.00 0.00 32 1014.2
20260505110138 64 297 0.0 0.0 0.00 0.00 0.00 32 1014.2
20260505101638 65 137 1.0 3.0 0.00 0.00 0.00 29 1013.8
20260505100130 66 256 0.0 0.0 0.00 0.00 0.00 28 1013.5
20260505094647 66 163 1.0 3.0 0.00 0.00 0.00 28 1013.3
20260505093158 65 16 1.0 6.0 0.00 0.00 0.00 30 1013.5
20260505091633 64 46 2.0 4.0 0.00 0.00 0.00 31 1013.5
20260505090125 64 336 0.0 2.0 0.00 0.00 0.00 32 1013.8
20260505084636 64 253 0.0 3.0 0.00 0.00 0.00 30 1013.8
20260505083132 64 80 0.0 3.0 0.00 0.00 0.00 31 1013.9
20260505081624 65 34 1.0 2.0 0.00 0.00 0.00 30 1014.0
20260505080141 65 260 1.0 3.0 0.00 0.00 0.00 30 1014.1
20260505074632 64 352 2.0 4.0 0.00 0.00 0.00 31 1014.0
20260505073128 64 36 3.0 5.0 0.00 0.00 0.00 30 1013.6
20260505071638 64 354 3.0 5.0 0.00 0.00 0.00 30 1013.7
20260505070132 64 1 3.0 6.0 0.00 0.00 0.00 29 1013.7
20260505064626 65 2 2.0 6.0 0.00 0.00 0.00 28 1013.5
20260505063138 66 301 3.0 6.0 0.00 0.00 0.00 26 1013.8
20260505061634 66 288 2.0 6.0 0.00 0.00 0.00 26 1014.0
20260505060126 66 300 2.0 5.0 0.00 0.00 0.00 25 1013.7
20260505054624 67 300 2.0 5.0 0.00 0.00 0.00 25 1013.9
20260505053137 68 296 2.0 5.0 0.00 0.00 0.00 23 1013.8
20260505051630 68 275 2.0 8.0 0.00 0.00 0.00 22 1014.0
20260505050127 67 306 0.0 2.0 0.00 0.00 0.00 25 1013.9
20260505041627 69 272 0.0 0.0 0.00 0.00 0.00 22 1014.2
20260505040124 69 270 0.0 0.0 0.00 0.00 0.00 21 1013.8
20260505034638 70 272 0.0 2.0 0.00 0.00 0.00 21 1013.7
20260505033131 72 267 2.0 6.0 0.00 0.00 0.00 19 1013.5
20260505031649 73 234 5.0 11.0 0.00 0.00 0.00 18 1013.4
20260505030139 73 253 7.0 12.0 0.00 0.00 0.00 18 1013.2
20260505024655 72 221 5.0 8.0 0.00 0.00 0.00 20 1013.0
20260505023125 72 225 3.0 6.0 0.00 0.00 0.00 20 1012.9
20260505021621 72 163 2.0 3.0 0.00 0.00 0.00 20 1012.8
20260505020134 72 162 1.0 3.0 0.00 0.00 0.00 20 1012.5
20260505014625 73 203 2.0 5.0 0.00 0.00 0.00 19 1012.6
20260505013139 74 219 2.0 7.0 0.00 0.00 0.00 17 1012.1
20260505011652 75 227 5.0 8.0 0.00 0.00 0.00 16 1012.3
20260505010126 76 235 5.0 10.0 0.00 0.00 0.00 15 1012.6
20260505004638 76 201 3.0 8.0 0.00 0.00 0.00 14 1012.6
20260505003152 77 225 4.0 7.0 0.00 0.00 0.00 13 1012.7